Location: Votelez
(50.0000°N, 15.0000°E)
Time: 05:37:39
(UTC+01:00)

ARIANE 6 FM1 Upper Stage - Pass Details

Date: 17 February 2026
Orbit: 523 x 607 km, 62.0° (Epoch: 11 March)

Event Time Altitude Azimuth Distance (km) Brightness Sun altitude
Rises 18:37:58 0° 313° (NW) 2,662 6.8 -12.8°
Reaches altitude 10° 18:40:09 10° 313° (NW) 1,768 5.9 -13.2°
Maximum altitude 18:44:07 82° 226° (SW) 535 2.5 -13.8°
Enters shadow 18:47:41 13° 139° (SE) 1,607 4.6 -14.4°
